CAPE
0 0 0 0 0 0 0 0 0 0 0 0 0 0 0 0 0 0 0 0 0 0 0 0 0 1 3 2 1 2 2 2 2 5 4 1 3 4
0 0 0 0 0 0 0 0 0 0 0 0 0 0 0 0 0 0 0 0 0 0 0 0 0 1 2 2 3 2 1 1 2 3 7 7 5 5
0 0 0 0 0 0 0 0 0 0 0 0 0 0 0 0 0 0 0 0 0 0 0 0 0 2 1 1 1 3 2 1 1 2 4 5 5 5
0 0 0 0 0 0 0 0 0 0 0 0 0 0 0 0 0 0 0 0 0 0 0 0 0 2 4 3 0 1 1 0 0 1 3 3 3 3
0 0 0 0 0 0 0 0 0 0 0 0 0 0 0 0 0 0 0 0 0 0 0 0 0 1 2 0 0 0 1 0 0 2 2 3 2 4
0 0 0 0 0 0 0 0 0 0 0 0 0 0 0 0 0 0 0 0 0 0 0 0 0 0 0 0 0 0 0 0 2 3 2 2 2 2
0 0 0 0 0 0 0 0 0 0 0 0 0 0 0 0 0 0 0 0 0 0 0 0 0 0 0 0 0 0 0 0 0 4 2 2 1 2
0 0 0 0 0 0 0 0 0 0 0 0 0 0 0 0 0 0 0 0 0 0 0 0 0 0 0 0 0 0 0 0 0 3 3 2 1 2
0 0 0 0 0 0 0 0 0 0 0 0 0 0 0 0 0 0 0 0 0 0 0 0 0 0 0 0 0 0 1 0 4 1 0 1 1 1
1 1 1 0 0 0 0 0 0 0 0 0 0 0 0 0 0 0 0 0 0 0 0 0 0 0 0 0 0 0 3 1 0 0 0 0 0 0
0 1 1 1 1 1 0 0 0 0 0 0 0 0 0 0 0 0 0 0 1 0 0 0 0 0 0 0 0 0 0 0 0 0 0 0 0 1
0 0 0 1 0 2 0 0 0 0 0 0 15 1 1 1 0 0 0 0 1 0 0 0 0 0 0 0 0 0 0 0 0 0 0 0 0 0
1 0 0 0 1 4 4 1 0 0 0 0 0 0 1 0 0 2 0 0 0 1 0 0 0 0 0 0 0 0 0 0 0 0 0 0 0 0
1 0 0 1 8 14 10 1 3 2 0 0 0 1 0 0 0 0 0 0 0 0 0 1 0 0 0 1 1 0 0 0 0 0 0 0 0 0
16 16 15 9 3 2 2 2 3 1 0 1 1 0 0 0 0 0 0 0 0 0 0 0 0 0 0 1 1 0 0 0 0 0 0 0 0 0
10 12 5 3 2 2 1 1 1 0 0 1 0 0 0 0 0 0 0 0 0 0 0 0 0 0 1 1 1 0 0 0 0 0 0 0 0 0
17 7 1 1 0 1 0 0 0 0 0 1 0 0 0 0 0 0 0 0 0 0 0 0 0 0 1 0 1 0 0 0 0 0 0 0 0 0
12 3 2 0 0 2 1 1 0 0 0 0 0 0 0 0 0 0 0 0 0 0 0 0 0 0 0 0 0 0 0 0 0 0 0 0 0 0
1 1 1 1 0 2 0 1 0 0 0 0 0 0 0 0 0 0 0 0 0 0 0 0 0 0 0 0 0 0 1 0 0 0 0 0 0 0
0 1 2 1 0 1 0 0 0 0 0 0 0 0 0 0 0 0 0 0 0 0 0 0 0 0 0 0 0 0 0 0 0 0 0 0 0 0
0 0 1 1 0 0 0 0 0 0 0 0 0 0 0 0 0 0 0 0 0 0 0 0 0 0 0 0 0 0 0 0 0 0 0 1 1 0
0 0 0 0 0 0 0 0 0 0 0 0 0 0 0 0 0 0 0 0 0 0 0 0 0 0 0 0 0 0 0 0 0 0 0 1 1 1
0 0 0 0 0 0 0 0 0 0 0 0 0 0 0 0 0 0 0 0 0 0 0 0 0 0 0 0 0 0 0 0 0 0 0 0 0 0
CIN
-0 -0 -0 -0 -0 -0 -0 -0 -0 -0 -0 -0 -0 -0 -0 -0 -0 -0 -0 -0 -0 -0 -0 -0 -0 -0 -0 -0 -0 -0 -0 -0 -0 -0 -0 -0 -0 -0
-0 -0 -0 -0 -0 -0 -0 -0 -0 -0 -0 -0 -0 -0 -0 -0 -0 -0 -0 -0 -0 -0 -0 -0 -0 -0 -0 -0 -0 -0 -0 -0 -0 -0 -0 -0 -0 -0
-0 -0 -0 -0 -0 -0 -0 -0 -0 -0 -0 -0 -0 -0 -0 -0 -0 -0 -0 -0 -0 -0 -0 -0 -0 -0 -0 -0 -0 -0 -0 -0 -0 -0 -0 -0 -0 -0
-0 -0 -0 -0 -0 -0 -0 -0 -0 -0 -0 -0 -0 -0 -0 -0 -0 -0 -0 -0 -0 -0 -0 -0 -0 -0 -0 -0 -0 -0 -0 -0 -0 -0 -0 -0 -0 -0
-0 -0 -0 -0 -0 -0 -0 -0 -0 -0 -0 -0 -0 -0 -0 -0 -0 -0 -0 -0 -0 -0 -0 -0 -0 -0 -0 -0 -0 -0 -0 -0 -0 -0 -0 -0 -0 -0
-0 -0 -0 -0 -0 -0 -0 -0 -0 -0 -0 -0 -0 -0 -0 -0 -0 -0 -0 -0 -0 -0 -0 -0 -0 -0 -0 -0 -0 -0 -0 -0 -0 -0 -0 -0 -0 -0
-0 -0 -0 -0 -0 -0 -0 -0 -0 -0 -0 -0 -0 -0 -0 -0 -0 -0 -0 -0 -0 -0 -0 -0 -0 -0 -0 -0 -0 -0 -0 -0 -0 -0 -0 -0 -0 -0
-0 -0 -0 -0 -0 -0 -0 -0 -0 -0 -0 -0 -0 -0 -0 -0 -0 -0 -0 -0 -0 -0 -0 -0 -0 -0 -0 -0 -0 -0 -0 -0 -0 -0 -0 -0 -0 -0
-0 -0 -0 -0 -0 -0 -0 -0 -0 -0 -0 -0 -0 -0 -0 -0 -0 -0 -0 -0 -0 -0 -0 -0 -0 -0 -0 -0 -0 -0 -0 -0 -0 -0 -0 -0 -0 -0
-0 -0 -0 -0 -0 -0 -0 -0 -0 -0 -0 -0 -0 -0 -0 -0 -0 -0 -0 -0 -0 -0 -0 -0 -0 -0 -0 -0 -0 -0 -0 -0 -0 -0 -0 -0 -0 -0
-0 -0 -0 -0 -0 -0 -0 -0 -0 -0 -0 -0 -0 -0 -0 -0 -0 -0 -0 -0 -0 -0 -0 -0 -0 -0 -0 -0 -0 -0 -0 -0 -0 -0 -0 -0 -0 -0
-0 -0 -0 -1 -1 -0 -0 -0 -0 -0 -0 -0 -0 -0 -0 -0 -0 -0 -0 -0 -0 -0 -0 -0 -0 -0 -0 -0 -0 -0 -0 -0 -0 -0 -0 -0 -0 -0
-2 -0 -0 -0 -1 -0 -0 -0 -0 -0 -0 -0 -0 -0 -0 -0 -0 -0 -0 -0 -0 -0 -0 -0 -0 -0 -0 -0 -0 -0 -0 -0 -0 -0 -0 -0 -0 -0
-2 -0 -0 -0 -0 -0 -0 -0 -0 -0 -0 -0 -0 -0 -0 -0 -0 -0 -0 -0 -0 -0 -0 -0 -0 -0 -0 -0 -0 -0 -0 -0 -0 -0 -0 -0 -0 -0
-0 -0 -0 -0 -0 -2 -0 -0 -0 -0 -0 -0 -0 -0 -0 -0 -0 -0 -0 -0 -0 -0 -0 -0 -0 -0 -0 -0 -0 -0 -0 -0 -0 -0 -0 -0 -0 -0
-0 -0 -1 -1 -0 -0 -0 -0 -0 -0 -0 -0 -0 -0 -0 -0 -0 -0 -0 -0 -0 -0 -0 -0 -0 -0 -0 -0 -0 -0 -0 -0 -0 -0 -0 -0 -0 -0
-0 -0 -0 -0 -0 -0 -0 -0 -0 -0 -0 -0 -0 -0 -0 -0 -0 -0 -0 -0 -0 -0 -0 -0 -0 -0 -0 -0 -0 -0 -0 -0 -0 -0 -0 -0 -0 -0
-0 -0 -0 -0 -0 -0 -0 -0 -0 -0 -0 -0 -0 -0 -0 -0 -0 -0 -0 -0 -0 -0 -0 -0 -0 -0 -0 -0 -0 -0 -0 -0 -0 -0 -0 -0 -0 -0
-0 -0 -0 -0 -0 -0 -0 -0 -0 -0 -0 -0 -0 -0 -0 -0 -0 -0 -0 -0 -0 -0 -0 -0 -0 -0 -0 -0 -0 -0 -0 -0 -0 -0 -0 -0 -0 -0
-0 -0 -0 -0 -0 -0 -0 -0 -0 -0 -0 -0 -0 -0 -0 -0 -0 -0 -0 -0 -0 -0 -0 -0 -0 -0 -0 -0 -0 -0 -0 -0 -0 -0 -0 -0 -0 -0
-1 -0 -0 -0 -0 -0 -0 -0 -0 -0 -0 -0 -0 -0 -0 -0 -0 -0 -0 -0 -0 -0 -0 -0 -0 -0 -0 -0 -0 -0 -0 -0 -0 -0 -0 -0 -0 -0
-0 -0 -0 -0 -0 -0 -0 -0 -0 -0 -0 -0 -0 -0 -0 -0 -0 -0 -0 -0 -0 -0 -0 -0 -0 -0 -0 -0 -0 -0 -0 -0 -0 -0 -0 -1 -0 -0
-0 -0 -0 -0 -0 -0 -0 -0 -0 -0 -0 -0 -0 -0 -0 -0 -0 -0 -0 -0 -0 -0 -0 -0 -0 -0 -0 -0 -0 -0 -0 -0 -0 -0 -0 -0 -0 -0
Wind_Speed
26 26 27 27 26 25 25 25 28 35 34 28 27 23 23 28 32 30 31 31 29 30 31 31 31 30 30 31 30 30 30 31 30 30 31 31 30 30
27 26 25 26 26 25 25 25 25 29 35 30 29 27 27 32 32 30 30 30 29 29 30 30 31 29 29 30 30 29 29 29 30 30 30 30 30 29
27 26 26 26 27 27 27 28 29 29 35 35 32 30 31 32 31 30 30 29 29 28 29 30 31 28 28 30 30 28 28 30 31 31 30 29 29 29
30 29 29 30 30 30 30 30 30 30 33 38 34 33 32 30 30 31 30 28 28 27 29 30 29 27 28 29 29 28 29 30 31 30 29 29 29 29
33 33 33 33 34 34 33 34 33 33 33 36 38 33 32 30 31 31 29 28 27 26 29 29 26 26 27 28 29 28 28 30 30 29 28 28 29 29
37 37 38 38 39 39 37 36 35 35 34 36 37 36 34 30 30 32 32 27 27 27 27 24 22 27 28 28 27 25 25 27 28 27 27 28 28 28
41 41 41 41 40 40 40 39 37 37 37 37 37 35 33 31 31 28 28 28 28 26 24 22 26 28 27 25 24 23 24 27 27 26 26 28 28 27
47 46 45 44 43 42 41 40 38 38 38 36 35 34 33 30 27 26 26 27 28 21 23 28 27 29 26 24 24 25 28 26 23 22 25 27 26 27
48 49 49 47 46 44 43 42 40 37 34 33 33 32 31 27 25 24 23 24 24 25 26 30 26 28 24 25 24 28 24 22 17 20 25 26 27 28
48 48 48 49 46 45 44 41 38 35 33 31 31 30 27 24 21 20 21 23 24 24 24 29 24 26 25 25 25 20 16 16 19 24 27 27 27 28
48 47 47 48 46 43 41 39 36 33 31 30 28 25 23 21 18 18 20 21 24 23 21 25 25 25 25 24 19 17 18 21 24 27 27 29 30 29
48 46 46 46 45 43 38 35 33 30 28 28 26 24 22 18 17 17 18 20 21 26 20 18 21 23 23 21 18 16 23 23 26 25 30 28 27 27
48 47 46 46 45 41 35 32 27 28 25 23 24 24 22 20 18 17 16 17 19 21 20 18 20 19 21 24 24 23 24 24 28 27 26 26 25 25
46 44 43 43 43 40 32 30 24 21 20 21 20 21 21 20 19 18 17 16 18 21 20 13 19 19 22 27 27 22 25 28 27 26 25 25 28 28
40 40 41 41 40 39 26 25 20 16 17 18 21 23 22 19 17 18 16 17 19 18 16 14 19 21 21 24 30 29 28 24 27 24 26 28 29 28
39 39 35 35 34 32 23 23 24 20 19 24 25 22 20 18 18 15 15 14 16 17 15 16 20 20 25 27 30 32 30 27 24 28 29 30 29 28
43 39 36 29 29 28 21 21 26 29 27 25 22 19 17 18 18 15 15 11 12 15 18 20 21 21 24 28 31 32 32 31 31 31 29 30 30 30
39 36 32 23 25 26 24 25 25 26 23 21 21 20 20 19 18 17 12 9 8 14 19 21 20 22 24 28 15 32 29 30 28 28 30 32 34 31
32 32 25 22 21 25 28 25 27 26 24 24 21 19 18 19 19 19 10 8 8 14 19 19 19 21 24 27 23 17 25 27 29 30 30 30 32 34
29 28 27 25 33 31 29 27 25 23 23 24 25 23 21 21 20 19 12 9 10 14 18 18 19 19 21 23 23 23 20 27 28 30 31 30 30 34
29 24 24 23 28 28 23 25 22 19 20 21 19 18 20 20 20 16 15 13 13 16 20 19 18 17 21 22 24 26 27 18 21 25 28 30 33 33
27 21 24 29 28 25 22 25 21 19 18 19 17 18 19 18 17 15 14 15 16 16 20 20 19 20 21 22 27 28 29 29 26 28 28 27 29 29
24 20 29 28 29 22 20 23 18 19 16 18 17 17 16 16 16 17 15 17 18 18 20 22 21 19 23 25 27 29 30 32 31 33 31 29 30 32
Wind_Direction
318 317 316 316 315 315 314 314 314 316 317 321 320 319 315 318 320 320 320 319 318 318 318 317 316 315 316 316 315 315 314 313 312 310 308 306 306 303
316 315 314 315 314 312 311 310 308 308 310 318 316 315 314 315 317 318 318 318 317 316 316 316 316 314 315 315 315 314 314 313 310 307 304 304 304 304
314 311 310 310 310 309 307 306 304 303 303 307 311 313 312 312 315 316 317 316 316 315 315 315 315 313 314 315 314 314 312 307 303 300 300 301 301 300
314 311 308 308 305 305 303 300 299 299 299 301 306 308 308 311 312 313 314 315 315 314 314 314 314 312 313 314 314 311 306 302 300 299 299 298 298 297
314 311 309 307 302 301 299 298 297 296 296 297 301 306 307 309 309 310 311 313 313 314 314 314 314 314 315 314 311 307 304 300 298 295 296 296 295 293
314 311 309 305 302 300 296 293 293 292 292 294 296 299 302 305 305 305 307 311 311 314 315 316 319 318 316 313 310 308 306 302 296 295 294 295 294 292
314 312 309 306 302 298 296 293 289 289 289 290 291 294 297 300 300 305 305 308 310 313 315 315 316 318 316 315 311 309 305 299 295 292 294 292 291 290
315 313 311 308 305 300 294 288 286 283 284 285 287 287 292 296 299 300 303 306 308 314 315 314 316 314 315 314 309 306 303 298 295 292 293 289 289 288
316 314 313 311 308 304 299 291 282 278 276 280 281 283 287 291 295 297 299 303 305 309 313 312 317 314 317 310 307 304 304 299 294 294 292 290 286 286
318 317 316 313 310 306 301 296 288 277 272 274 278 282 284 289 289 294 299 303 305 307 312 311 318 315 317 312 308 307 309 305 296 290 286 286 283 284
321 320 319 317 314 310 304 297 291 283 274 269 273 278 282 282 285 291 295 298 302 307 315 313 314 314 315 313 314 307 304 296 288 286 285 283 280 281
322 322 322 321 318 314 306 299 290 283 275 274 272 274 278 276 276 281 290 293 300 307 317 316 316 317 314 313 310 306 299 292 288 285 282 283 281 282
322 322 323 323 321 316 309 302 288 288 279 273 272 274 276 277 278 281 286 292 299 304 312 314 315 314 309 302 299 297 293 287 284 286 286 285 284 285
322 322 323 324 324 318 311 306 291 280 279 278 275 274 272 273 275 281 286 294 301 305 309 308 310 308 302 294 290 294 288 282 282 282 283 283 284 285
326 324 323 325 325 322 314 308 298 280 278 277 277 274 273 274 280 283 291 300 305 306 307 308 304 301 299 292 279 278 281 287 281 280 287 283 284 287
329 329 327 326 327 325 319 313 296 283 274 273 271 273 276 274 277 287 295 305 307 306 308 306 300 298 288 280 272 261 270 280 287 283 283 283 288 290
329 330 331 331 330 328 327 305 289 274 269 267 270 273 273 274 280 291 302 309 309 307 304 300 297 294 286 275 265 261 265 268 269 276 286 288 291 294
331 333 333 336 334 329 318 298 286 273 270 267 264 268 271 275 284 294 308 311 313 308 300 296 295 292 290 281 280 269 280 279 287 292 292 291 289 295
336 336 335 336 336 327 301 291 276 268 263 259 263 269 275 281 285 290 310 316 319 311 300 297 297 293 288 286 294 298 289 292 295 294 296 297 297 296
337 338 335 332 290 282 285 279 273 266 262 257 258 267 276 278 285 289 306 313 322 315 305 302 300 297 295 296 298 300 304 299 301 299 301 303 302 296
338 339 338 264 259 269 301 268 276 278 268 268 269 281 278 280 286 298 302 310 315 312 299 304 305 307 302 303 300 299 301 312 311 308 308 306 303 302
338 340 321 266 260 240 303 265 284 275 276 272 277 282 282 288 295 302 307 306 307 308 303 304 309 305 303 303 298 301 303 305 311 308 305 305 306 306
340 342 268 261 275 308 300 276 290 274 281 280 282 286 294 293 299 301 306 305 307 306 303 298 303 308 302 301 300 301 304 306 309 307 308 310 306 302